Location: B�hl
(48.6968°N, 8.1352°E)
Time: 00:06:53
(UTC+00:00)

Cosmos 2369 Rocket - Pass Details

Date: 08 March 2021
Orbit: 829 x 852 km, 71.0° (Epoch: 20 April)

Event Time Altitude Azimuth Distance (km) Brightness Sun altitude
Rises 18:27:12 0° 335° (NNW) 3,383 5.8 -11.5°
Reaches altitude 10° 18:31:48 10° 9° (N) 2,448 4.6 -12.3°
Maximum altitude 18:33:26 11° 27° (NNE) 2,362 4.3 -12.5°
Drops below altitude 10° 18:35:06 10° 44° (NE) 2,449 4.3 -12.8°
Enters shadow 18:36:15 - 55° (NE) 2,603 4.3 -13.0°
